User: anonymous   Login
Location: Unspecified
(0.0000°N, 0.0000°E)
Time: 08:48:00
(UTC+00:00)
Language:

TBA - TO BE ASSIGNED - Orbit

View from above orbital plane
View from above orbital plane
View from above satellite
View from above satellite

Ground track
Ground track

The orbit is defined by the following mean orbital elements,

1 68607U          26145.58335647 +.00000000 +00000-0 -35195-1 0 00004
2 68607  97.2841 345.0260 0001158  72.9080 279.7433 15.55189235    00
Epoch (UTC): 25 May 2026 14:00:01
Eccentricity: 0.0001158
inclination: 97.2841°
perigee height: 401 km
apogee height: 402 km
right ascension of ascending node: 345.0260°
argument of perigee: 72.9080°
revolutions per day: 15.55189235
mean anomaly at epoch: 279.7433°

The dashed part of the orbit path shows where the satellite is in the earth's shadow,  

DLR